This demonstration page uses our WeatherBlox Daily Observations layout. Learn more.

Left ArrowRight Arrow

41.55636, -103.73856

Hourly Observations for December 21, 2017

Temp ( °F °C ) Dew Point ( °F °C ) Humidity (%) Winds ( mph kmh ) Pressure ( in mb ) Visibility ( mi km ) Precip ( " mm )
12:00 am 00:00 Cloudy 30 -1 19 -7 64 64 N 17 28 30.00 1016 10 16 N/A
12:53 am 00:53 Cloudy 29 -1.7 21 -6.1 72 72 N 17 28 29.87 1011 10 16 N/A
1:53 am 01:53 Cloudy 27 -2.8 20 -6.7 75 75 N 21 33 29.89 1012 10 16 N/A
2:53 am 02:53 Cloudy 24 -4.4 19 -7.2 81 81 NNW 14 22 29.92 1013 10 16 N/A
3:53 am 03:53 Cloudy with Light Snow 22 -5.6 16 -8.9 78 78 N 18 30 29.97 1015 10 16 N/A
4:30 am 04:30 Cloudy with Light Snow 21 -6 18 -8 86 86 NNW 15 24 30.18 1022 3 4 N/A
4:41 am 04:41 Cloudy with Light Snow 21 -6.1 17 -8.3 85 85 NNW 14 22 30.18 1022 3 5 N/A
4:53 am 04:53 Cloudy with Light Snow 21 -6.1 17 -8.3 85 85 NNW 14 22 30.01 1016 4 6 N/A
5:05 am 05:05 Cloudy with Light Snow 21 -6.1 15 -9.4 78 78 N 15 24 30.21 1023 7 11 N/A
5:53 am 05:53 Cloudy with Light Snow 20 -6.7 14 -10 78 78 N 16 26 30.04 1017 3 4 N/A
5:59 am 05:59 Cloudy with Light Snow 19 -7.2 15 -9.4 84 84 N 13 20 30.24 1024 2 3 N/A
6:28 am 06:28 Cloudy with Light Snow 19 -7.2 15 -9.4 84 84 N 15 24 30.27 1025 1 2 0.02 0.51
6:42 am 06:42 Cloudy with Light Snow 19 -7 16 -9 86 86 N 12 19 30.27 1025 2 3 N/A
6:53 am 06:53 Cloudy with Light Snow 19 -7.2 15 -9.4 84 84 NNW 10 17 30.12 1020 3 4 0.02 0.51
7:01 am 07:01 Cloudy with Light Snow 18 -7.8 14 -10 84 84 N 14 22 30.30 1026 3 5 N/A
7:17 am 07:17 Cloudy with Light Snow 18 -7.8 14 -10 84 84 N 13 20 30.30 1026 2 3 N/A
7:25 am 07:25 Mostly Cloudy with Snow 18 -7.8 14 -10 84 84 NNW 13 20 30.30 1026 1 1 0.01 0.25
7:39 am 07:39 Mostly Cloudy with Snow 17 -8.3 15 -9.4 92 92 NNW 10 17 30.33 1027 1 1 0.04 1.02
7:50 am 07:50 Cloudy with Light Snow 18 -8 16 -9 93 93 NNW 14 22 30.30 1026 1 2 N/A
7:53 am 07:53 Cloudy with Light Snow 18 -7.8 14 -10 84 84 NNW 16 26 30.14 1021 1 2 0.04 1.02
8:07 am 08:07 Mostly Cloudy with Snow 17 -8.3 14 -10 88 88 N 12 19 30.33 1027 1 1 0.01 0.25
8:30 am 08:30 Mostly Cloudy with Light Snow 18 -8 14 -10 86 86 NNW 13 20 30.30 1026 1 2 N/A
8:53 am 08:53 Cloudy with Light Snow 18 -7.8 14 -10 84 84 NW 14 22 30.15 1021 1 2 0.05 1.27
9:26 am 09:26 Windy with Snow Likely 18 -8 12 -11 79 79 NNW 20 31 30.36 1028 3 5 N/A
9:53 am 09:53 Windy with Snow Likely 18 -7.8 12 -11.1 77 77 NNW 20 31 30.19 1023 3 5 N/A
10:04 am 10:04 Cloudy with Light Snow 18 -7.8 13 -10.6 81 81 NNW 16 26 30.33 1027 2 3 N/A
10:22 am 10:22 Cloudy with Light Snow 18 -8 12 -11 79 79 N 15 24 30.36 1028 1 1 N/A
10:51 am 10:51 Mostly Cloudy with Snow 18 -8 12 -11 79 79 N 13 20 30.36 1028 1 1 0.01 0.25
10:53 am 10:53 Mostly Cloudy with Heavy Snow 17 -8.3 12 -11.1 80 80 N 10 17 30.21 1023 0 0 0.01 0.25
11:06 am 11:06 Mostly Cloudy with Snow 18 -8 12 -11 79 79 N 12 19 30.36 1028 1 1 N/A
11:44 am 11:44 Mostly Cloudy with Snow 16 -9 12 -11 86 86 N 12 19 30.36 1028 1 1 N/A
11:53 am 11:53 Mostly Cloudy with Heavy Snow 16 -8.9 12 -11.1 84 84 N 10 17 30.20 1023 0 0 0.06 1.52
12:25 pm 12:25 Mostly Cloudy with Snow 17 -8.3 13 -10.6 84 84 NNW 6 9 30.36 1028 1 1 0.05 1.27
12:33 pm 12:33 Mostly Cloudy with Light Snow 17 -8.3 13 -10.6 84 84 N 10 17 30.33 1027 1 1 0.05 1.27
12:42 pm 12:42 Cloudy with Light Snow 18 -8 12 -11 79 79 N 9 15 30.30 1026 1 2 N/A
12:53 pm 12:53 Cloudy with Light Snow 18 -7.8 13 -10.6 81 81 NNW 9 15 30.18 1022 1 2 0.06 1.52
1:07 pm 13:07 Cloudy with Light Snow 18 -7.8 12 -11.1 77 77 N 9 15 30.30 1026 2 3 0.01 0.25
1:20 pm 13:20 Cloudy with Light Snow 18 -8 12 -11 79 79 NNW 9 15 30.30 1026 3 5 N/A
1:26 pm 13:26 Cloudy with Light Snow 18 -7.8 12 -11.1 77 77 N 8 13 30.30 1026 3 4 0.01 0.25
1:35 pm 13:35 Cloudy with Light Snow 18 -7.8 12 -11.1 77 77 N 8 13 30.30 1026 3 5 0.01 0.25
1:53 pm 13:53 Cloudy with Light Snow 18 -7.8 12 -11.1 77 77 NNW 10 17 30.18 1022 3 5 0.01 0.25
2:08 pm 14:08 Cloudy with Light Snow 17 -8.3 11 -11.7 77 77 NNW 12 19 30.33 1027 3 4 N/A
2:40 pm 14:40 Cloudy with Light Snow 17 -8.3 11 -11.7 77 77 NNW 12 19 30.33 1027 3 5 N/A
2:53 pm 14:53 Cloudy 17 -8.3 10 -12.2 74 74 NNW 13 20 30.21 1023 8 13 N/A
3:53 pm 15:53 Cloudy 16 -8.9 10 -12.2 77 77 NNW 6 9 30.23 1024 10 16 N/A
4:53 pm 16:53 Mostly Clear 15 -9.4 11 -11.7 84 84 N N/A 30.23 1024 10 16 N/A
5:53 pm 17:53 Clear 10 -12.2 7 -13.9 87 87 N N/A 30.25 1024 10 16 N/A
6:53 pm 18:53 Clear 3 -16.1 1 -17.2 91 91 N 3 6 30.28 1025 10 16 N/A
7:53 pm 19:53 Clear 3 -16.1 N/A 87 87 N N/A 30.27 1025 10 16 N/A
8:53 pm 20:53 Partly Cloudy N/A -3 -19.4 87 87 N N/A 30.28 1025 10 16 N/A
9:02 pm 21:02 Mostly Cloudy with Mist and Fog N/A -2 -19 92 92 N N/A 30.50 1033 4 6 N/A
9:23 pm 21:23 Partly Cloudy with Mist and Fog 1 -17.2 -1 -18.3 91 91 N N/A 30.48 1032 2 3 N/A
9:26 pm 21:26 Mostly Cloudy with Mist and Fog N/A -2 -19 92 92 SE 3 6 30.50 1033 1 1 N/A
9:42 pm 21:42 Mostly Clear with Mist and Fog N/A -2 -19 92 92 NNE 3 6 30.50 1033 1 2 N/A
9:45 pm 21:45 Mostly Clear with Mist and Fog -1 -18.3 -4 -20 87 87 NNE 3 6 30.50 1033 4 6 N/A
9:53 pm 21:53 Mostly Clear with Mist and Fog -2 -18.9 -5 -20.6 87 87 NNE 5 7 30.28 1025 4 6 N/A
10:53 pm 22:53 Clear N/A -4 -20 83 83 ENE 3 6 30.25 1024 10 16 N/A
11:53 pm 23:53 Clear -2 -18.9 -6 -21.1 83 83 NNE 6 9 30.25 1024 10 16 N/A

Powered by AerisWeather